When you browse on this site, cookies collect data to enhance your experience and personalize the content and advertising you see.
Visit our Privacy Policy to learn more. By continuing to use the site, you agree to this use of cookies and data.
  • In Lithuania
  • List of Countries
  • For 7 days
  • Water Temperature
  • Satellite Maps
  • Weather Map
  • Weather Widgets
  • user-avatar
    Login

    Hourly Weather Arbuzinka

    Today, 25 April, Thursday

    Time Temperature Precipitation Wind Pressure Humidity
    00:00 +11°C° 0 mm 1 mps 760 mmHg 56%
    01:00 +10°C° 0 mm 1 mps 760 mmHg 56%
    02:00 +9°C° 0 mm 0 mps 760 mmHg 57%
    03:00 +9°C° 0 mm 0 mps 760 mmHg 57%
    04:00 +10°C° 0 mm 1 mps 760 mmHg 57%
    05:00 +10°C° 0 mm 1 mps 760 mmHg 57%
    06:00 +12°C° 0 mm 1 mps 760 mmHg 53%
    07:00 +14°C° 0 mm 1 mps 760 mmHg 49%
    08:00 +16°C° 0 mm 2 mps 760 mmHg 45%
    09:00 +17°C° 0 mm 2 mps 760 mmHg 41%
    10:00 +19°C° 0 mm 3 mps 760 mmHg 37%
    11:00 +20°C° 0 mm 4 mps 760 mmHg 33%
    12:00 +21°C° 0 mm 4 mps 760 mmHg 33%
    13:00 +21°C° 0 mm 4 mps 759 mmHg 33%
    14:00 +22°C° 0 mm 5 mps 759 mmHg 33%
    15:00 +21°C° 0 mm 4 mps 759 mmHg 34%
    16:00 +21°C° 0 mm 4 mps 758 mmHg 35%
    17:00 +21°C° 0 mm 4 mps 758 mmHg 37%
    18:00 +18°C° 0 mm 4 mps 758 mmHg 41%
    19:00 +16°C° 0 mm 3 mps 758 mmHg 45%
    20:00 +13°C° 0 mm 3 mps 758 mmHg 49%
    21:00 +13°C° 0 mm 2 mps 758 mmHg 52%
    22:00 +12°C° 0 mm 2 mps 758 mmHg 54%
    23:00 +12°C° 0 mm 2 mps 758 mmHg 57%

    Tomorrow, 26 April, Friday

    Time Temperature Precipitation Wind Pressure Humidity
    00:00 +10°C° 0 mm 2 mps 758 mmHg 61%
    01:00 +10°C° 0 mm 1 mps 758 mmHg 65%
    02:00 +10°C° 0 mm 1 mps 757 mmHg 69%
    03:00 +9°C° 0 mm 1 mps 757 mmHg 70%
    04:00 +9°C° 0 mm 1 mps 757 mmHg 72%
    05:00 +8°C° 0 mm 1 mps 757 mmHg 73%
    06:00 +10°C° 0 mm 1 mps 757 mmHg 65%
    07:00 +12°C° 0 mm 2 mps 757 mmHg 58%
    08:00 +14°C° 0 mm 2 mps 757 mmHg 50%
    09:00 +16°C° 0 mm 3 mps 757 mmHg 44%
    10:00 +18°C° 0 mm 3 mps 757 mmHg 39%
    11:00 +19°C° 0 mm 4 mps 757 mmHg 33%
    12:00 +20°C° 0 mm 4 mps 756 mmHg 32%
    13:00 +21°C° 0 mm 4 mps 756 mmHg 31%
    14:00 +21°C° 0 mm 4 mps 756 mmHg 30%
    15:00 +21°C° 0 mm 5 mps 755 mmHg 33%
    16:00 +20°C° 0 mm 5 mps 755 mmHg 36%
    17:00 +20°C° 0 mm 5 mps 755 mmHg 39%
    18:00 +18°C° 0 mm 4 mps 755 mmHg 45%
    19:00 +15°C° 0 mm 4 mps 755 mmHg 52%
    20:00 +13°C° 0 mm 3 mps 755 mmHg 58%
    21:00 +12°C° 0 mm 3 mps 755 mmHg 60%
    22:00 +11°C° 0 mm 3 mps 755 mmHg 62%
    23:00 +12°C° 0 mm 2 mps 754 mmHg 64%

    Day after tomorrow, 27 April, Saturday

    Time Temperature Precipitation Wind Pressure Humidity
    00:00 +10°C° 0 mm 2 mps 754 mmHg 64%
    01:00 +10°C° 0 mm 2 mps 754 mmHg 65%
    02:00 +9°C° 0 mm 2 mps 754 mmHg 66%
    03:00 +9°C° 0 mm 2 mps 754 mmHg 67%
    04:00 +9°C° 0 mm 2 mps 753 mmHg 68%
    05:00 +9°C° 0 mm 2 mps 753 mmHg 70%
    06:00 +11°C° 0 mm 3 mps 753 mmHg 65%
    07:00 +13°C° 0 mm 3 mps 753 mmHg 60%
    08:00 +15°C° 0 mm 4 mps 753 mmHg 55%
    09:00 +16°C° 0 mm 5 mps 753 mmHg 52%
    10:00 +19°C° 0 mm 5 mps 753 mmHg 48%
    11:00 +21°C° 0 mm 6 mps 752 mmHg 44%
    12:00 +21°C° 0 mm 6 mps 752 mmHg 42%
    13:00 +22°C° 0 mm 6 mps 751 mmHg 41%
    14:00 +22°C° 0 mm 6 mps 751 mmHg 39%
    15:00 +22°C° 0 mm 5 mps 751 mmHg 40%
    16:00 +22°C° 0 mm 5 mps 750 mmHg 41%
    17:00 +21°C° 0 mm 5 mps 750 mmHg 42%
    18:00 +19°C° 0 mm 4 mps 750 mmHg 48%
    19:00 +17°C° 0 mm 4 mps 750 mmHg 55%
    20:00 +14°C° 0 mm 3 mps 750 mmHg 61%
    21:00 +13°C° 0 mm 3 mps 750 mmHg 64%
    22:00 +12°C° 0 mm 3 mps 750 mmHg 66%
    23:00 +11°C° 0 mm 3 mps 750 mmHg 68%

    28 April, Sunday

    Time Temperature Precipitation Wind Pressure Humidity
    00:00 +10°C° 0 mm 3 mps 750 mmHg 68%
    01:00 +10°C° 0 mm 2 mps 750 mmHg 67%
    02:00 +9°C° 0 mm 2 mps 749 mmHg 66%
    03:00 +9°C° 0 mm 2 mps 749 mmHg 67%
    04:00 +9°C° 0 mm 2 mps 749 mmHg 68%
    05:00 +9°C° 0 mm 2 mps 749 mmHg 69%
    06:00 +12°C° 0 mm 2 mps 749 mmHg 65%
    07:00 +13°C° 0 mm 3 mps 749 mmHg 62%
    08:00 +15°C° 0 mm 4 mps 749 mmHg 58%
    09:00 +18°C° 0 mm 4 mps 749 mmHg 54%
    10:00 +19°C° 0 mm 5 mps 749 mmHg 50%
    11:00 +21°C° 0 mm 5 mps 749 mmHg 46%
    12:00 +22°C° 0 mm 5 mps 749 mmHg 43%
    13:00 +22°C° 0 mm 5 mps 748 mmHg 41%
    14:00 +23°C° 0 mm 5 mps 748 mmHg 38%
    15:00 +22°C° 0 mm 5 mps 748 mmHg 39%
    16:00 +22°C° 0 mm 5 mps 748 mmHg 41%
    17:00 +21°C° 0 mm 5 mps 748 mmHg 42%
    18:00 +19°C° 0 mm 4 mps 748 mmHg 47%
    19:00 +17°C° 0 mm 3 mps 748 mmHg 53%
    20:00 +14°C° 0 mm 3 mps 748 mmHg 58%
    21:00 +14°C° 0 mm 2 mps 748 mmHg 60%
    22:00 +14°C° 0 mm 2 mps 748 mmHg 61%
    23:00 +13°C° 0 mm 2 mps 748 mmHg 62%

    29 April, Monday

    Time Temperature Precipitation Wind Pressure Humidity
    00:00 +13°C° 0 mm 2 mps 748 mmHg 65%
    01:00 +12°C° 0 mm 1 mps 748 mmHg 67%
    02:00 +12°C° 0 mm 1 mps 748 mmHg 70%
    03:00 +11°C° 0.1 mm 1 mps 748 mmHg 72%
    04:00 +11°C° 0.1 mm 1 mps 748 mmHg 75%
    05:00 +11°C° 0.1 mm 1 mps 748 mmHg 77%
    06:00 +12°C° 0 mm 1 mps 748 mmHg 72%
    07:00 +14°C° 0 mm 1 mps 748 mmHg 67%
    08:00 +16°C° 0 mm 1 mps 748 mmHg 62%
    09:00 +18°C° 0 mm 2 mps 748 mmHg 60%
    10:00 +19°C° 0 mm 2 mps 748 mmHg 58%
    11:00 +21°C° 0 mm 2 mps 748 mmHg 56%
    12:00 +23°C° 0.1 mm 2 mps 747 mmHg 52%
    13:00 +24°C° 0.1 mm 2 mps 747 mmHg 47%
    14:00 +24°C° 0.1 mm 2 mps 747 mmHg 43%
    15:00 +24°C° 0 mm 2 mps 747 mmHg 46%
    16:00 +23°C° 0 mm 2 mps 747 mmHg 49%
    17:00 +22°C° 0 mm 1 mps 746 mmHg 52%
    18:00 +20°C° 0.5 mm 2 mps 747 mmHg 60%
    19:00 +18°C° 0.5 mm 2 mps 747 mmHg 69%
    20:00 +17°C° 0.5 mm 3 mps 747 mmHg 77%
    21:00 +16°C° 0.4 mm 2 mps 747 mmHg 79%
    22:00 +15°C° 0.4 mm 2 mps 747 mmHg 82%
    23:00 +15°C° 0.4 mm 2 mps 747 mmHg 84%

    30 April, Tuesday

    Time Temperature Precipitation Wind Pressure Humidity
    00:00 +14°C° 0.2 mm 2 mps 747 mmHg 85%
    01:00 +14°C° 0.2 mm 2 mps 747 mmHg 86%
    02:00 +13°C° 0.2 mm 2 mps 747 mmHg 87%
    03:00 +13°C° 0.1 mm 2 mps 747 mmHg 89%
    04:00 +12°C° 0.1 mm 3 mps 747 mmHg 90%
    05:00 +11°C° 0.1 mm 3 mps 747 mmHg 92%
    06:00 +12°C° 0 mm 3 mps 747 mmHg 88%
    07:00 +13°C° 0 mm 4 mps 747 mmHg 84%
    08:00 +14°C° 0 mm 4 mps 747 mmHg 80%
    09:00 +17°C° 0 mm 4 mps 747 mmHg 72%
    10:00 +19°C° 0 mm 4 mps 747 mmHg 65%
    11:00 +20°C° 0 mm 4 mps 747 mmHg 58%
    12:00 +21°C° 0.7 mm 3 mps 747 mmHg 55%
    13:00 +21°C° 0.7 mm 3 mps 747 mmHg 52%
    14:00 +21°C° 0.7 mm 3 mps 746 mmHg 49%
    15:00 +20°C° 1.8 mm 4 mps 746 mmHg 56%
    16:00 +19°C° 1.8 mm 5 mps 746 mmHg 62%
    17:00 +16°C° 1.8 mm 6 mps 746 mmHg 69%
    18:00 +15°C° 1.4 mm 6 mps 746 mmHg 75%
    19:00 +14°C° 1.4 mm 6 mps 746 mmHg 80%
    20:00 +12°C° 1.4 mm 7 mps 746 mmHg 86%
    21:00 +12°C° 1.2 mm 7 mps 746 mmHg 87%
    22:00 +11°C° 1.2 mm 7 mps 746 mmHg 88%
    23:00 +10°C° 1.2 mm 8 mps 746 mmHg 89%
    Show more